Regional Weather Roundup
Issued by NWS Kansas City/Pleasant Hill, MO

Home | Current Version | Previous Version | Text Only | Print | Product List | Glossary On
Versions: 1 2 3 4 5 6 7 8 9 10 11 12 13 14 15 16 17 18 19 20 21 22 23 24 25 26 27 28 29 30 31 32 33 34 35 36 37 38 39 40 41 42 43 44 45 46 47 48 49 50
000
ASUS43 KEAX 011911
RWREAX

WEATHER ROUNDUP FOR EASTERN KANSAS AND NORTHWEST MISSOURI
NATIONAL WEATHER SERVICE KANSAS CITY/PLEASANT HILL MO
100 PM CST SUN FEB 01 2015

KSZ040-057-103>105-MOZ028-029-037-043-012000-
...KANSAS CITY METROPOLITAN AREA...

CITY           SKY/WX    TMP DP  RH WIND       PRES   REMARKS
K.C. INTL      LGT SNOW  25  22  88 NW21G35   29.85R FOG     WCI  11
K.C. DOWNTOWN  FLURRIES  29  23  78 NW22G33   29.85R WCI  15
LEES SUMMIT    CLOUDY    29  26  89 NW24G32   29.82R FOG     WCI  15
OLATHE - IXD   MIX PCPN  27  23  85 NW26G36   29.86S WCI  12
OLATHE - OJC   MIX PCPN  28  23  81 NW22G33   29.84R WCI  14
LAWRENCE       CLOUDY    26  22  84 NW32G44   29.91S WCI   9

$$

MOZ001>008-011>017-020>025-030>033-038>040-044>046-053-054-012000-
...NORTHERN AND CENTRAL MISSOURI...

CITY           SKY/WX    TMP DP  RH WIND       PRES   REMARKS
ST. JOSEPH     LGT SNOW  24  20  84 NW26G35   29.91R VSB 1   WCI   8
MOSBY          CLOUDY    32  28  86 NW21G33   29.82R WCI  20
WARRENSBURG    FLURRIES  34  32  93 W16G22    29.77S WCI  23
WHITEMAN AFB   FLURRIES  34  33  94 NW16      29.74S WCI  24
CLINTON        LGT RAIN  36  36 100 NW15G21   29.78R WCI  26
SEDALIA        FLURRIES  35  33  92 NW17      29.73S WCI  25
WARSAW         NOT AVBL
MARSHALL       LGT SNOW  36  36 100 NW13      29.73F WCI  27
CHILLICOTHE      N/A     35  32  88 NW7       29.75F WCI  29
MOBERLY        LGT SNOW  36  32  87 W8        29.69F WCI  29
KIRKSVILLE     LGT SNOW  34  33  96 N9        29.70S FOG     WCI  27

$$

MOZ041-047>049-056>058-063>065-088>090-097-012000-
...EASTERN AND SOUTHERN MISSOURI...

CITY           SKY/WX    TMP DP  RH WIND       PRES   REMARKS
ST. LOUIS INTL CLOUDY    41  38  89 W8        29.65F FOG
SPIRIT OF STL  CLOUDY    40  38  93 W7        29.64F
COLUMBIA       CLOUDY    36  36 100 NW13      29.68S FOG     WCI  27
JEFFERSON CITY CLOUDY    39  37  92 NW13      29.69F FOG     WCI  31
MEXICO         CLOUDY   N/A N/A N/A W10       29.67F
HANNIBAL       LGT SNOW  36  32  87 NW7       29.66F VSB 3/4 WCI  30
ROLLA          LGT RAIN  41  38  89 NW10      29.64F FOG     WCI  35
LEBANON        CLOUDY    43  41  93 W16       29.68F FOG
OSAGE BEACH    CLOUDY    43  37  81 W9        29.68F
SPRINGFIELD    CLOUDY    37  34  89 W21G31    29.76R WCI  26
BRANSON        CLOUDY    41  37  87 W13G26    29.77R WCI  34
NEVADA         CLOUDY    32  30  93 W21       29.85R WCI  20
JOPLIN         CLOUDY    34  29  82 NW23G33   29.87R WCI  22
WEST PLAINS    LGT RAIN  45  42  89 W10       29.69F FOG

$$

IAZ060-094-KSZ022-034>040-054-083-096-NEZ052-066-093-012000-
...KANSAS...SOUTHEAST NEBRASKA AND IOWA...

CITY           SKY/WX    TMP DP  RH WIND       PRES   REMARKS
TOPEKA         LGT SNOW  24  18  77 NW26G36   29.98R WCI   8
MANHATTAN      LGT SNOW  17  11  77 NW16G29   30.10R WCI   2
EMPORIA        MIX PCPN  21  16  81 NW29G38   29.99R WCI   3
CHANUTE        CLOUDY    29  22  75 NW24G35   29.95R WCI  15
WICHITA        CLOUDY    25  14  63 N28G36    30.09R WCI   9
OMAHA          SNOW      17  13  84 N29G41    30.06R VSB 1/2 WCI  -2
LINCOLN        CLOUDY    13   7  77 N29G40    30.13R BLWGSNOWWCI  -8
FALLS CITY     LGT SNOW  22  17  81 NW17G33   29.97R VSB 1   WCI   8
LAMONI         SNOW      25  22  88 N25G35    29.81R VSB 1/2 WCI   9
DES MOINES     SNOW      21  16  81 NE22G30   29.91R VSB 1/2 WCI   5

$$




USA.gov is the U.S. government's official web portal to all federal, state and local government web resources and services.